Home > Weather > Bridgewater > Past weeks

Flag for USA Past Weather in Bridgewater, Massachusetts, USA — Yesterday and Last 2 Weeks

Now
61 °F

Clear.


Feels Like: 61 °F
Forecast: 59 / 85 °F
Wind: 3 mph from Southeast

Location: Taunton Municipal Airport

Current Time: May 27, 2016 at 6:39:14 AM

Latest Report: May 27, 2016 at 5:52 AM


Visibility: 9 mi

Pressure: 30.10 "Hg

Humidity: 83%

Dew Point: 56 °F

Location of BridgewaterLocation

Past Weather in Bridgewater — Graph

°F

Bridgewater Temperature Yesterday

Maximum temperature yesterday: 90 °F (at 12:52 PM)
Minimum temperature yesterday: 55 °F (at 4:52 AM)
Average temperature yesterday: 74 °F

High & Low Weather Summary for the Past Weeks

 TemperatureHumidityPressure
High90 °F (May 26, 12:52 PM)93% (May 20, 5:54 AM)30.21 "Hg (May 20, 5:54 AM)
Low40 °F (May 12, 5:52 AM)16% (May 12, 1:52 PM)29.53 "Hg (May 15, 3:00 AM)
Average61 °F60%29.96 "Hg
* Reported May 12 4:52 AM — May 27 4:52 AM, Bridgewater, Weather by CustomWeather, © 2016

Note: Actual official high and low records may vary slightly from our data, if they occured in-between our weather recording intervals... More about our weather records

Advertising

Bridgewater Weather History for the Previous 24 Hours

Scroll right to see more
 ConditionsComfort  
Time TempWeatherWind HumidityBarometerVisibility
4:52 AM
Fri, May 27
61 °FClear.5 mph83%30.10 "Hg10 mi
3:52 AM59 °FClear.3 mph84%30.09 "Hg10 mi
2:52 AM60 °FClear.3 mph83%30.09 "Hg10 mi
1:52 AM61 °FClear.6 mph81%30.09 "Hg10 mi
12:52 AM60 °FClear.5 mph80%30.09 "Hg10 mi
11:52 PM
Thu, May 26
64 °FClear.5 mph73%30.08 "Hg10 mi
10:52 PM65 °FClear.5 mph70%30.08 "Hg10 mi
9:52 PM68 °FClear.6 mph65%30.07 "Hg10 mi
8:52 PM72 °FScattered clouds.6 mph57%30.05 "Hg10 mi
7:52 PM76 °FSunny.6 mph52%30.04 "Hg10 mi
6:52 PM80 °FSunny.7 mph44%30.03 "Hg10 mi
5:52 PM83 °FOvercast.6 mph40%30.03 "Hg10 mi
4:52 PM86 °FSunny.10 mph33%30.03 "Hg10 mi
3:52 PM86 °FPassing clouds.12 mph36%30.03 "Hg10 mi
2:52 PM89 °FSunny.13 mph34%30.02 "Hg10 mi
1:52 PM90 °FSunny.8 mph33%30.03 "Hg10 mi
12:52 PM90 °FSunny.7 mph33%30.05 "Hg10 mi
11:52 AM87 °FSunny.6 mph36%30.06 "Hg10 mi
10:52 AM85 °FSunny.No wind39%30.07 "Hg10 mi
9:52 AM83 °FSunny.3 mph43%30.08 "Hg10 mi
8:52 AM80 °FSunny.3 mph47%30.10 "Hg10 mi
7:52 AM73 °FSunny.No wind57%30.09 "Hg10 mi
6:52 AM64 °FSunny.No wind78%30.08 "Hg10 mi
Weather by CustomWeather, © 2016

See weather overviewHow to use our weather pages